TimeHST,TemperatureF,Dew PointF,Humidity,Sea Level PressureIn,VisibilityMPH,Wind Direction,Wind SpeedMPH,Gust SpeedMPH,PrecipitationIn,Events,Conditions,WindDirDegrees,DateUTC
12:53 AM,69.1,63.0,81,30.16,10.0,ENE,19.6,-,0.00,,Scattered Clouds,60,2013-02-23 10:53:00
1:53 AM,70.0,64.9,84,30.14,10.0,ENE,17.3,-,N/A,,Mostly Cloudy,60,2013-02-23 11:53:00
2:02 AM,69.8,64.4,83,30.14,10.0,NE,21.9,27.6,N/A,,Mostly Cloudy,50,2013-02-23 12:02:00
2:21 AM,69.8,64.4,83,30.14,10.0,ENE,18.4,-,N/A,,Mostly Cloudy,60,2013-02-23 12:21:00
2:36 AM,69.8,64.4,83,30.13,10.0,NE,17.3,-,N/A,,Mostly Cloudy,50,2013-02-23 12:36:00
2:49 AM,69.8,64.4,83,30.13,10.0,ENE,19.6,-,N/A,,Overcast,60,2013-02-23 12:49:00
2:53 AM,70.0,64.0,81,30.12,10.0,ENE,17.3,-,N/A,,Overcast,60,2013-02-23 12:53:00
3:02 AM,69.8,64.4,83,30.12,10.0,ENE,17.3,-,N/A,,Overcast,60,2013-02-23 13:02:00
3:14 AM,69.8,64.4,83,30.12,9.0,ENE,21.9,27.6,0.00,Rain,Light Rain,60,2013-02-23 13:14:00
3:27 AM,69.8,62.6,78,30.12,10.0,ENE,18.4,-,0.00,,Overcast,60,2013-02-23 13:27:00
3:53 AM,70.0,64.0,81,30.11,10.0,ENE,17.3,-,0.00,,Overcast,60,2013-02-23 13:53:00
4:51 AM,69.8,64.4,83,30.11,10.0,ENE,17.3,-,N/A,,Mostly Cloudy,60,2013-02-23 14:51:00
4:53 AM,70.0,64.0,81,30.11,10.0,ENE,15.0,-,N/A,,Mostly Cloudy,60,2013-02-23 14:53:00
5:02 AM,69.8,64.4,83,30.12,10.0,ENE,18.4,-,N/A,,Mostly Cloudy,60,2013-02-23 15:02:00
5:12 AM,69.8,62.6,78,30.12,10.0,ENE,16.1,-,N/A,,Mostly Cloudy,60,2013-02-23 15:12:00
5:53 AM,70.0,64.9,84,30.12,8.0,NE,16.1,-,0.00,Rain,Light Rain,50,2013-02-23 15:53:00
6:23 AM,69.8,62.6,78,30.13,10.0,ENE,17.3,-,0.00,,Mostly Cloudy,60,2013-02-23 16:23:00
6:53 AM,70.0,63.0,78,30.14,10.0,ENE,17.3,-,0.00,,Mostly Cloudy,60,2013-02-23 16:53:00
7:28 AM,69.8,64.4,83,30.15,8.0,ENE,15.0,-,N/A,,Overcast,60,2013-02-23 17:28:00
7:37 AM,69.8,64.4,83,30.15,4.0,ENE,13.8,-,0.02,Rain,Light Rain,60,2013-02-23 17:37:00
7:48 AM,69.8,64.4,83,30.16,10.0,ENE,18.4,-,0.02,,Overcast,60,2013-02-23 17:48:00
7:53 AM,70.0,64.9,84,30.15,8.0,ENE,15.0,-,0.02,Rain,Light Rain,60,2013-02-23 17:53:00
8:06 AM,69.8,64.4,83,30.16,10.0,ENE,19.6,-,0.00,,Overcast,70,2013-02-23 18:06:00
8:53 AM,71.1,64.0,78,30.17,10.0,ENE,13.8,-,0.00,,Mostly Cloudy,70,2013-02-23 18:53:00
9:53 AM,73.0,64.9,76,30.18,10.0,ENE,18.4,26.5,N/A,,Scattered Clouds,60,2013-02-23 19:53:00
10:53 AM,73.9,64.0,71,30.18,10.0,ENE,20.7,27.6,0.00,,Mostly Cloudy,70,2013-02-23 20:53:00
11:53 AM,75.0,64.9,71,30.17,10.0,ENE,17.3,-,N/A,,Scattered Clouds,70,2013-02-23 21:53:00
12:35 PM,73.4,64.4,73,30.15,10.0,ENE,20.7,26.5,N/A,,Mostly Cloudy,60,2013-02-23 22:35:00
12:42 PM,73.4,62.6,69,30.15,10.0,ENE,21.9,-,N/A,,Mostly Cloudy,70,2013-02-23 22:42:00
12:53 PM,73.9,64.9,73,30.14,10.0,ENE,18.4,26.5,N/A,,Mostly Cloudy,70,2013-02-23 22:53:00
1:28 PM,73.4,64.4,73,30.13,10.0,ENE,19.6,-,N/A,,Mostly Cloudy,60,2013-02-23 23:28:00
1:44 PM,73.4,64.4,73,30.13,10.0,ENE,19.6,26.5,N/A,,Overcast,60,2013-02-23 23:44:00
1:53 PM,73.9,64.0,71,30.12,10.0,ENE,21.9,-,N/A,,Overcast,60,2013-02-23 23:53:00
2:34 PM,75.2,64.4,69,30.12,10.0,ENE,19.6,-,N/A,,Overcast,70,2013-02-24 00:34:00
2:53 PM,73.0,64.0,73,30.11,10.0,ENE,19.6,-,0.00,Rain,Light Rain,70,2013-02-24 00:53:00
3:14 PM,71.6,62.6,73,30.11,10.0,ENE,19.6,27.6,0.00,Rain,Light Rain,60,2013-02-24 01:14:00
3:53 PM,73.0,64.0,73,30.10,10.0,ENE,18.4,-,0.00,,Mostly Cloudy,60,2013-02-24 01:53:00
4:53 PM,73.0,64.0,73,30.11,10.0,ENE,18.4,-,N/A,,Mostly Cloudy,60,2013-02-24 02:53:00
5:53 PM,70.0,64.0,81,30.11,10.0,ENE,19.6,-,0.01,,Mostly Cloudy,60,2013-02-24 03:53:00
6:04 PM,69.8,64.4,83,30.12,10.0,ENE,20.7,-,N/A,,Overcast,70,2013-02-24 04:04:00
6:12 PM,69.8,64.4,83,30.12,10.0,ENE,18.4,-,N/A,,Overcast,60,2013-02-24 04:12:00
6:20 PM,71.6,64.4,78,30.12,10.0,ENE,20.7,-,N/A,,Mostly Cloudy,70,2013-02-24 04:20:00
6:53 PM,70.0,64.0,81,30.12,10.0,ENE,21.9,26.5,0.00,Rain,Light Rain,60,2013-02-24 04:53:00
7:11 PM,71.6,64.4,78,30.13,10.0,ENE,19.6,26.5,0.00,,Overcast,60,2013-02-24 05:11:00
7:53 PM,71.1,63.0,75,30.14,10.0,ENE,19.6,-,0.00,,Overcast,60,2013-02-24 05:53:00
8:53 PM,71.1,63.0,75,30.16,10.0,ENE,19.6,27.6,N/A,,Overcast,70,2013-02-24 06:53:00
9:53 PM,71.1,64.0,78,30.17,10.0,ENE,21.9,-,0.00,,Overcast,70,2013-02-24 07:53:00
10:53 PM,70.0,63.0,78,30.17,10.0,ENE,20.7,28.8,N/A,,Overcast,70,2013-02-24 08:53:00
11:53 PM,69.1,64.0,84,30.16,7.0,ENE,21.9,28.8,0.00,Rain,Light Rain,70,2013-02-24 09:53:00